Time,TemperatureF,DewpointF,PressureIn,WindDirection,WindDirectionDegrees,WindSpeedMPH,WindSpeedGustMPH,Humidity,HourlyPrecipIn,Conditions,Clouds,dailyrainin,SoftwareType,DateUTC
2013-01-02 00:05:00,31.1,28.0,30.23,NNW,331,0.0,4.0,88,0.00,,,0.00,weatherlink.com 1.10,2013-01-02 06:05:00,
2013-01-02 00:20:00,30.9,28.0,30.23,NNW,336,0.0,1.0,88,0.00,,,0.00,weatherlink.com 1.10,2013-01-02 06:20:00,
2013-01-02 00:35:00,30.7,28.0,30.23,ENE,63,0.0,2.0,89,0.00,,,0.00,weatherlink.com 1.10,2013-01-02 06:35:00,
2013-01-02 00:50:00,30.4,28.0,30.23,ENE,59,0.0,2.0,89,0.00,,,0.00,weatherlink.com 1.10,2013-01-02 06:50:00,
2013-01-02 01:05:00,30.1,27.0,30.23,North,360,0.0,2.0,89,0.00,,,0.00,weatherlink.com 1.10,2013-01-02 07:05:00,
2013-01-02 01:20:00,29.8,27.0,30.23,NNE,29,1.0,2.0,89,0.00,,,0.00,weatherlink.com 1.10,2013-01-02 07:20:00,
2013-01-02 01:35:00,29.5,27.0,30.24,WNW,296,1.0,3.0,89,0.00,,,0.00,weatherlink.com 1.10,2013-01-02 07:35:00,
2013-01-02 01:50:00,29.2,26.0,30.25,North,4,0.0,1.0,89,0.00,,,0.00,weatherlink.com 1.10,2013-01-02 07:50:00,
2013-01-02 02:05:00,29.1,26.0,30.25,North,352,1.0,3.0,89,0.00,,,0.00,weatherlink.com 1.10,2013-01-02 08:05:00,
2013-01-02 02:20:00,29.0,26.0,30.26,North,5,1.0,2.0,89,0.00,,,0.00,weatherlink.com 1.10,2013-01-02 08:20:00,
2013-01-02 02:35:00,29.0,26.0,30.25,North,1,0.0,1.0,89,0.00,,,0.00,weatherlink.com 1.10,2013-01-02 08:35:00,
2013-01-02 02:50:00,28.8,26.0,30.25,NE,55,0.0,2.0,89,0.00,,,0.00,weatherlink.com 1.10,2013-01-02 08:50:00,
2013-01-02 03:05:00,28.6,26.0,30.27,East,79,1.0,2.0,89,0.00,,,0.00,weatherlink.com 1.10,2013-01-02 09:05:00,
2013-01-02 03:20:00,28.4,25.0,30.25,NNE,32,0.0,4.0,88,0.00,,,0.00,weatherlink.com 1.10,2013-01-02 09:20:00,
2013-01-02 03:35:00,28.3,25.0,30.26,NNW,342,0.0,5.0,87,0.00,,,0.00,weatherlink.com 1.10,2013-01-02 09:35:00,
2013-01-02 03:50:00,28.1,25.0,30.26,North,349,1.0,4.0,86,0.00,,,0.00,weatherlink.com 1.10,2013-01-02 09:50:00,
2013-01-02 04:05:00,28.0,24.0,30.26,NNE,15,0.0,3.0,86,0.00,,,0.00,weatherlink.com 1.10,2013-01-02 10:05:00,
2013-01-02 04:20:00,27.8,24.0,30.26,NE,56,1.0,2.0,87,0.00,,,0.00,weatherlink.com 1.10,2013-01-02 10:20:00,
2013-01-02 04:36:00,27.6,24.0,30.27,NE,39,0.0,2.0,87,0.00,,,0.00,weatherlink.com 1.10,2013-01-02 10:36:00,
2013-01-02 04:51:00,27.2,24.0,30.27,NNW,340,0.0,1.0,87,0.00,,,0.00,weatherlink.com 1.10,2013-01-02 10:51:00,
2013-01-02 05:06:00,27.0,24.0,30.28,ENE,72,0.0,1.0,87,0.00,,,0.00,weatherlink.com 1.10,2013-01-02 11:06:00,
2013-01-02 05:21:00,26.9,23.0,30.27,ENE,63,1.0,4.0,86,0.00,,,0.00,weatherlink.com 1.10,2013-01-02 11:21:00,
2013-01-02 05:36:00,26.8,24.0,30.28,NNE,33,1.0,2.0,87,0.00,,,0.00,weatherlink.com 1.10,2013-01-02 11:36:00,
2013-01-02 05:51:00,26.6,23.0,30.28,NNW,327,0.0,4.0,86,0.00,,,0.00,weatherlink.com 1.10,2013-01-02 11:51:00,
2013-01-02 06:06:00,26.3,23.0,30.29,NNE,13,0.0,5.0,87,0.00,,,0.00,weatherlink.com 1.10,2013-01-02 12:06:00,
2013-01-02 06:21:00,26.1,23.0,30.28,North,5,0.0,1.0,87,0.00,,,0.00,weatherlink.com 1.10,2013-01-02 12:21:00,
2013-01-02 06:36:00,25.8,23.0,30.29,North,8,0.0,2.0,88,0.00,,,0.00,weatherlink.com 1.10,2013-01-02 12:36:00,
2013-01-02 06:51:00,25.6,23.0,30.29,ENE,67,0.0,3.0,88,0.00,,,0.00,weatherlink.com 1.10,2013-01-02 12:51:00,
2013-01-02 07:06:00,25.4,22.0,30.29,NNE,21,0.0,3.0,88,0.00,,,0.00,weatherlink.com 1.10,2013-01-02 13:06:00,
2013-01-02 07:21:00,25.4,22.0,30.31,ENE,75,0.0,0.0,88,0.00,,,0.00,weatherlink.com 1.10,2013-01-02 13:21:00,
2013-01-02 07:36:00,25.4,23.0,30.30,NNW,342,0.0,3.0,89,0.00,,,0.00,weatherlink.com 1.10,2013-01-02 13:36:00,
2013-01-02 07:51:00,25.4,22.0,30.30,NNW,345,0.0,0.0,88,0.00,,,0.00,weatherlink.com 1.10,2013-01-02 13:51:00,
2013-01-02 08:06:00,25.7,23.0,30.30,NE,46,0.0,2.0,88,0.00,,,0.00,weatherlink.com 1.10,2013-01-02 14:06:00,
2013-01-02 08:21:00,26.3,23.0,30.31,NE,37,0.0,2.0,87,0.00,,,0.00,weatherlink.com 1.10,2013-01-02 14:21:00,
2013-01-02 08:36:00,26.9,23.0,30.31,NNE,17,0.0,5.0,85,0.00,,,0.00,weatherlink.com 1.10,2013-01-02 14:36:00,
2013-01-02 08:51:00,27.1,23.0,30.32,NE,34,0.0,3.0,85,0.00,,,0.00,weatherlink.com 1.10,2013-01-02 14:51:00,
2013-01-02 09:06:00,27.5,23.0,30.32,North,351,0.0,3.0,84,0.00,,,0.00,weatherlink.com 1.10,2013-01-02 15:06:00,
2013-01-02 09:21:00,27.6,23.0,30.32,NE,48,0.0,2.0,84,0.00,,,0.00,weatherlink.com 1.10,2013-01-02 15:21:00,
2013-01-02 09:36:00,28.7,25.0,30.32,NE,56,1.0,4.0,84,0.00,,,0.00,weatherlink.com 1.10,2013-01-02 15:36:00,
2013-01-02 09:51:00,29.3,24.0,30.33,ENE,64,0.0,4.0,82,0.00,,,0.00,weatherlink.com 1.10,2013-01-02 15:51:00,
2013-01-02 10:06:00,29.8,24.0,30.33,NW,316,1.0,3.0,80,0.00,,,0.00,weatherlink.com 1.10,2013-01-02 16:06:00,
2013-01-02 10:21:00,30.1,24.0,30.32,NNW,340,1.0,2.0,79,0.00,,,0.00,weatherlink.com 1.10,2013-01-02 16:21:00,
2013-01-02 10:36:00,30.5,24.0,30.31,NNE,30,0.0,2.0,78,0.00,,,0.00,weatherlink.com 1.10,2013-01-02 16:36:00,
2013-01-02 10:51:00,31.1,25.0,30.31,WNW,297,0.0,3.0,77,0.00,,,0.00,weatherlink.com 1.10,2013-01-02 16:51:00,
2013-01-02 11:06:00,31.6,25.0,30.31,ENE,60,1.0,3.0,76,0.00,,,0.00,weatherlink.com 1.10,2013-01-02 17:06:00,
2013-01-02 11:21:00,32.0,24.0,30.31,NE,49,0.0,5.0,73,0.00,,,0.00,weatherlink.com 1.10,2013-01-02 17:21:00,
2013-01-02 11:36:00,32.2,24.0,30.31,NE,44,1.0,4.0,73,0.00,,,0.00,weatherlink.com 1.10,2013-01-02 17:36:00,
2013-01-02 11:51:00,33.1,25.0,30.29,WNW,300,0.0,2.0,73,0.00,,,0.00,weatherlink.com 1.10,2013-01-02 17:51:00,
2013-01-02 12:06:00,33.0,24.0,30.29,North,354,1.0,4.0,70,0.00,,,0.00,weatherlink.com 1.10,2013-01-02 18:06:00,
2013-01-02 12:21:00,33.1,24.0,30.28,NNW,333,0.0,3.0,70,0.00,,,0.00,weatherlink.com 1.10,2013-01-02 18:21:00,
2013-01-02 12:36:00,33.6,24.0,30.27,West,270,1.0,3.0,69,0.00,,,0.00,weatherlink.com 1.10,2013-01-02 18:36:00,
2013-01-02 12:51:00,33.7,24.0,30.26,North,8,0.0,3.0,68,0.00,,,0.00,weatherlink.com 1.10,2013-01-02 18:51:00,
2013-01-02 13:07:00,34.4,24.0,30.25,NE,40,2.0,3.0,66,0.00,,,0.00,weatherlink.com 1.10,2013-01-02 19:07:00,
2013-01-02 13:22:00,34.6,23.0,30.25,NNW,335,0.0,2.0,64,0.00,,,0.00,weatherlink.com 1.10,2013-01-02 19:22:00,
2013-01-02 13:37:00,34.8,24.0,30.25,North,349,1.0,3.0,64,0.00,,,0.00,weatherlink.com 1.10,2013-01-02 19:37:00,
2013-01-02 13:52:00,34.9,24.0,30.25,WNW,284,1.0,3.0,65,0.00,,,0.00,weatherlink.com 1.10,2013-01-02 19:52:00,
2013-01-02 14:07:00,35.1,24.0,30.25,WNW,290,0.0,2.0,63,0.00,,,0.00,weatherlink.com 1.10,2013-01-02 20:07:00,
2013-01-02 14:22:00,35.2,22.0,30.26,WNW,300,0.0,2.0,60,0.00,,,0.00,weatherlink.com 1.10,2013-01-02 20:22:00,
2013-01-02 14:37:00,35.3,23.0,30.25,North,1,0.0,1.0,60,0.00,,,0.00,weatherlink.com 1.10,2013-01-02 20:37:00,
2013-01-02 14:52:00,35.3,23.0,30.25,WNW,297,0.0,2.0,61,0.00,,,0.00,weatherlink.com 1.10,2013-01-02 20:52:00,
2013-01-02 15:07:00,35.2,22.0,30.25,West,266,0.0,1.0,60,0.00,,,0.00,weatherlink.com 1.10,2013-01-02 21:07:00,
2013-01-02 15:22:00,35.0,22.0,30.26,WNW,287,0.0,2.0,59,0.00,,,0.00,weatherlink.com 1.10,2013-01-02 21:22:00,
2013-01-02 15:37:00,34.9,23.0,30.27,ENE,57,0.0,2.0,62,0.00,,,0.00,weatherlink.com 1.10,2013-01-02 21:37:00,
2013-01-02 15:52:00,35.0,23.0,30.27,NNE,32,0.0,1.0,61,0.00,,,0.00,weatherlink.com 1.10,2013-01-02 21:52:00,
2013-01-02 16:07:00,34.8,22.0,30.27,WNW,284,0.0,1.0,61,0.00,,,0.00,weatherlink.com 1.10,2013-01-02 22:07:00,
2013-01-02 16:22:00,34.5,22.0,30.27,NNE,15,0.0,1.0,60,0.00,,,0.00,weatherlink.com 1.10,2013-01-02 22:22:00,
2013-01-02 16:37:00,34.2,21.0,30.28,NNE,15,0.0,0.0,60,0.00,,,0.00,weatherlink.com 1.10,2013-01-02 22:37:00,
2013-01-02 16:52:00,33.9,21.0,30.28,NNE,15,0.0,0.0,60,0.00,,,0.00,weatherlink.com 1.10,2013-01-02 22:52:00,
2013-01-02 17:07:00,33.6,21.0,30.29,NNE,20,0.0,0.0,61,0.00,,,0.00,weatherlink.com 1.10,2013-01-02 23:07:00,
2013-01-02 17:22:00,33.4,22.0,30.29,NNE,20,0.0,0.0,62,0.00,,,0.00,weatherlink.com 1.10,2013-01-02 23:22:00,
2013-01-02 17:37:00,33.2,21.0,30.29,NNE,20,0.0,0.0,62,0.00,,,0.00,weatherlink.com 1.10,2013-01-02 23:37:00,
2013-01-02 18:07:00,33.0,22.0,30.29,NNE,20,0.0,0.0,63,0.00,,,0.00,weatherlink.com 1.10,2013-01-03 00:07:00,
2013-01-02 18:22:00,32.9,22.0,30.29,NNE,20,0.0,0.0,64,0.00,,,0.00,weatherlink.com 1.10,2013-01-03 00:22:00,
2013-01-02 18:37:00,32.9,24.0,30.30,WNW,285,1.0,2.0,70,0.00,,,0.00,weatherlink.com 1.10,2013-01-03 00:37:00,
2013-01-02 18:52:00,32.8,24.0,30.30,NW,317,1.0,3.0,71,0.00,,,0.00,weatherlink.com 1.10,2013-01-03 00:52:00,
2013-01-02 19:07:00,32.5,24.0,30.30,WNW,282,2.0,3.0,71,0.00,,,0.00,weatherlink.com 1.10,2013-01-03 01:07:00,
2013-01-02 19:22:00,32.3,24.0,30.30,WNW,300,0.0,3.0,72,0.00,,,0.00,weatherlink.com 1.10,2013-01-03 01:22:00,
2013-01-02 19:37:00,32.1,24.0,30.30,NNW,340,0.0,0.0,73,0.00,,,0.00,weatherlink.com 1.10,2013-01-03 01:37:00,
2013-01-02 19:52:00,31.7,24.0,30.30,NNE,20,0.0,1.0,74,0.00,,,0.00,weatherlink.com 1.10,2013-01-03 01:52:00,
2013-01-02 20:07:00,31.1,24.0,30.30,NE,46,0.0,0.0,75,0.00,,,0.00,weatherlink.com 1.10,2013-01-03 02:07:00,
2013-01-02 20:22:00,30.6,24.0,30.30,NE,48,0.0,1.0,75,0.00,,,0.00,weatherlink.com 1.10,2013-01-03 02:22:00,
2013-01-02 20:37:00,30.4,24.0,30.31,NE,48,0.0,0.0,76,0.00,,,0.00,weatherlink.com 1.10,2013-01-03 02:37:00,
2013-01-02 20:52:00,30.1,23.0,30.30,NE,47,0.0,0.0,76,0.00,,,0.00,weatherlink.com 1.10,2013-01-03 02:52:00,
2013-01-02 21:07:00,29.8,23.0,30.31,NE,48,0.0,0.0,76,0.00,,,0.00,weatherlink.com 1.10,2013-01-03 03:07:00,
2013-01-02 21:22:00,29.3,23.0,30.31,NE,47,0.0,0.0,77,0.00,,,0.00,weatherlink.com 1.10,2013-01-03 03:22:00,
2013-01-02 21:52:00,29.3,23.0,30.32,NE,47,0.0,0.0,77,0.00,,,0.00,weatherlink.com 1.10,2013-01-03 03:52:00,
2013-01-02 22:07:00,28.9,23.0,30.32,NE,47,0.0,0.0,77,0.00,,,0.00,weatherlink.com 1.10,2013-01-03 04:07:00,
2013-01-02 22:22:00,28.3,23.0,30.32,NE,47,0.0,0.0,79,0.00,,,0.00,weatherlink.com 1.10,2013-01-03 04:22:00,
2013-01-02 22:37:00,28.4,23.0,30.32,NE,47,0.0,0.0,80,0.00,,,0.00,weatherlink.com 1.10,2013-01-03 04:37:00,
2013-01-02 22:52:00,28.4,23.0,30.32,NE,49,0.0,0.0,80,0.00,,,0.00,weatherlink.com 1.10,2013-01-03 04:52:00,
2013-01-02 23:22:00,28.8,23.0,30.32,NE,34,0.0,0.0,80,0.00,,,0.00,weatherlink.com 1.10,2013-01-03 05:22:00,
2013-01-02 23:38:00,28.9,23.0,30.32,NNE,18,0.0,0.0,79,0.00,,,0.00,weatherlink.com 1.10,2013-01-03 05:38:00,
2013-01-02 23:52:00,28.4,23.0,30.31,NNE,18,0.0,0.0,80,0.00,,,0.00,weatherlink.com 1.10,2013-01-03 05:52:00,